Location: Paris
(48.6709°N, 2.3750°E)
Time: 06:50:22
(UTC+02:00)

CUBESAT XI-V - Pass Details

Date: 26 June 2022
Orbit: 668 x 690 km, 98.1° (Epoch: 18 August)

Event Time Altitude Azimuth Distance (km) Brightness Sun altitude
Exits shadow 01:57:32 - 113° (ESE) 2,768 ? -18.0°
Reaches altitude 10° 01:59:43 10° 97° (E) 2,114 ? -17.9°
Maximum altitude 02:02:35 17° 58° (ENE) 1,715 ? -17.9°
Drops below altitude 10° 02:05:27 10° 20° (NNE) 2,115 ? -17.9°
Sets 02:08:23 0° 360° (N) 3,031 ? -17.9°
